Simultaneous Nadir Overpasses (SNOs) Predictions

Prediction of SNOs between FY3D and NOAA-19 Satellite Orbit:

Table of predicted SNOs for the next 14.0 days since TLE Epoch: 5/16/2020
Index Date (FY3D) Time (FY3D) Lat,Lon (FY3D) SZA (FY3D ) Date (NOAA-19) Time (NOAA-19) Lat,Lon (NOAA-19) SZA (NOAA-19 ) Distance(km) Time Diff (sec)
1 05/18/2020 03:36:30 79.22, 94.87 61.10 05/18/2020 03:35:24 79.23, 91.39 61.51 72.20 66
2 05/18/2020 04:27:20 -79.44, -99.48 118.56 05/18/2020 04:26:13 -79.43, -99.46 118.54 0.72 67
3 05/18/2020 05:18:06 79.46, 67.66 61.47 05/18/2020 05:17:18 79.43, 67.72 61.46 3.66 48
4 05/18/2020 06:08:49 -79.43,-124.83 118.58 05/18/2020 06:08:13 -79.45,-124.79 118.56 1.97 36
5 05/18/2020 06:59:35 79.46, 42.31 61.45 05/18/2020 06:59:18 79.44, 42.39 61.44 2.10 17
6 05/18/2020 07:50:19 -79.47,-150.45 118.55 05/18/2020 07:50:14 -79.44,-150.39 118.57 3.18 5
7 05/18/2020 08:41:04 79.45, 16.96 61.43 05/18/2020 08:41:18 79.46, 17.07 61.42 2.47 14
8 05/18/2020 09:31:48 -79.46,-175.81 118.57 05/18/2020 09:32:14 -79.46,-175.72 118.59 1.92 26
9 05/18/2020 10:22:33 79.45, -8.40 61.41 05/18/2020 10:23:19 79.45, -8.54 61.41 3.00 46
10 05/18/2020 11:13:17 -79.46, 158.84 118.58 05/18/2020 11:14:14 -79.47, 158.96 118.61 2.85 57
11 05/18/2020 12:04:05 79.55, -34.57 61.56 05/18/2020 12:05:17 79.53, -33.30 61.38 25.67 72




NCC Satellite Simultaneous Nadir Overpasses (SNOs) Prediction Service
